Location: *
(44.3925°N, 5.4708°E)
Time: 01:31:53
(UTC+00:00)

Spot 2 Rocket - Pass Details

Date: 18 September 2019
Orbit: 758 x 772 km, 98.6° (Epoch: 21 October)

Event Time Altitude Azimuth Distance (km) Brightness Sun altitude
Exits shadow 20:23:10 67° 9° (N) 823 3.6 -27.6°
Drops below altitude 10° 20:27:35 10° 348° (NNW) 2,298 6.5 -28.3°
Sets 20:29:53 0° 348° (NNW) 3,227 7.4 -28.6°
